SL-16 DEB, 22410

Orbit data source: Space-Track

SL-16 DEB, 22410 is space debris in LEO originally from a launch on Fri, 25 Dec 1992 UTC launched from the Tyuratam Missile And Space Complex (TTMTR). Debris objects in space refer to the collection of defunct objects orbiting the Earth. Examples of debris include non-operational satellites, rocket bodies, and fragments generated from explosions, collisions, or faulty payload assembly.

Loading next visibility...
Identifier
22410, 1992-093DB
Orbit
LEO
Country
Flag of CISCIS
Related business
Manufacturer
Unknown
Mission
Spacecraft
Bus & Motor
Unknown
Mass
Unknown
Launch date (UTC)
1992-12-25 (33 years ago)
Launch vehicle
Unknown
Launch site
Tyuratam Missile And Space Complex (TTMTR)
Object type
Payload
Rocket body
Debris
Shape & HBR
Unknown
Radar Cross Section
Medium (>0.1 m² and <1 m²)

Expand to show TLE details & history
Last TLE update: 2 days ago

TLE from 2 days ago
0 SL-16 DEB
1 22410U 92093DB  26171.46829411  .00000079  00000-0  84020-4 0  9998
2 22410  71.0860 342.1010 0107811 350.7128  39.0057 13.97365827702282
Epoch: 2026-06-20T11:14Z
TLE epoch observation values (Epoch: 2026-06-20T11:14:20.611Z)
Latitude
28.75399°
Longitude
-84.38843°
Altitude
845.294 km
Speed
7.464 km/s
True Right ascension
23h 31m 31s
True Declination
28° 36' 39"
Sunlit
Object was in daylight at epoch
Visualization orbit readout
Latitude
Unknown
Longitude
Unknown
Altitude
Unknown
Speed
Unknown
Apparent Right ascension
Unknown
Apparent Declination
Unknown
Sunlit
N/A
Visualization observer readout
Local Sidereal Time
04:00:15
Azimuth
Unknown
Elevation
Unknown
Doppler factor
Unknown
Orbital elements
Apogee altitude
979.34 km
Perigee altitude
822.389 km
Semi-major axis
7,279.002 km
Eccentricity
0.01078
Inclination
71.086°
RAAN
342.101°
Arg. of periapsis
350.7128°
True anomaly
39.79147°
Mean anomaly
39.0057°
Eccentric anomaly
39.39776°
Mean motion
3.49491 °/min
Orbital period
103.01 mins
BSTAR
0.00008402
Loading maneuver chart data...
Computing Atmospheric mass density...
Loading historical data...
Loading historical data...
Loading historical data...
Loading historical data...
Loading historical data...
Loading historical data...
Loading historical data...

Documentation

Showing up to 5 results
|